Time,TemperatureF,DewpointF,PressureIn,WindDirection,WindDirectionDegrees,WindSpeedMPH,WindSpeedGustMPH,Humidity,HourlyPrecipIn,Conditions,Clouds,dailyrainin,SoftwareType,DateUTC
2013-01-03 00:00:00,39.4,37.3,30.06,WSW,243,3.2,3.2,89,0.00,,,0.05,dv,2013-01-03 05:00:00,
2013-01-03 00:05:00,39.4,37.3,30.05,WSW,243,3.2,3.2,89,0.00,,,0.00,dv,2013-01-03 05:05:00,
2013-01-03 00:10:00,39.4,37.3,30.05,West,264,3.2,3.2,89,0.00,,,0.00,dv,2013-01-03 05:10:00,
2013-01-03 00:15:00,39.4,37.3,30.05,WSW,254,6.4,6.4,89,0.00,,,0.00,dv,2013-01-03 05:15:00,
2013-01-03 00:20:00,39.3,37.4,30.04,West,270,3.2,3.2,90,0.00,,,0.00,dv,2013-01-03 05:20:00,
2013-01-03 00:25:00,39.3,37.2,30.04,West,270,0.0,0.0,89,0.00,,,0.00,dv,2013-01-03 05:25:00,
2013-01-03 00:35:00,39.4,37.5,30.04,West,270,1.6,1.6,90,0.00,,,0.00,dv,2013-01-03 05:35:00,
2013-01-03 00:45:00,39.4,37.5,30.05,SW,230,6.4,6.4,90,0.00,,,0.00,dv,2013-01-03 05:45:00,
2013-01-03 00:50:00,39.4,37.5,30.05,West,279,6.4,6.4,90,0.00,,,0.00,dv,2013-01-03 05:50:00,
2013-01-03 00:55:00,39.3,37.4,30.05,SW,227,3.2,3.2,90,0.00,,,0.00,dv,2013-01-03 05:55:00,
2013-01-03 01:00:00,39.3,37.2,30.05,SW,226,8.1,8.1,89,0.00,,,0.00,dv,2013-01-03 06:00:00,
2013-01-03 01:05:00,39.2,37.1,30.06,West,262,4.8,4.8,89,0.00,,,0.00,dv,2013-01-03 06:05:00,
2013-01-03 01:10:00,39.1,37.0,30.06,WNW,282,4.8,4.8,89,0.00,,,0.00,dv,2013-01-03 06:10:00,
2013-01-03 01:15:00,39.1,37.0,30.06,WSW,253,6.4,6.4,89,0.00,,,0.00,dv,2013-01-03 06:15:00,
2013-01-03 01:20:00,39.1,37.0,30.06,WSW,239,3.2,3.2,89,0.00,,,0.00,dv,2013-01-03 06:20:00,
2013-01-03 01:25:00,39.1,37.2,30.06,WSW,258,4.8,4.8,90,0.00,,,0.00,dv,2013-01-03 06:25:00,
2013-01-03 01:30:00,39.0,37.1,30.05,SW,236,3.2,3.2,90,0.00,,,0.00,dv,2013-01-03 06:30:00,
2013-01-03 01:35:00,39.0,36.9,30.05,SW,236,3.2,3.2,89,0.00,,,0.00,dv,2013-01-03 06:35:00,
2013-01-03 01:40:00,39.0,36.9,30.05,SW,236,0.0,0.0,89,0.00,,,0.00,dv,2013-01-03 06:40:00,
2013-01-03 01:45:00,39.0,36.9,30.05,SW,236,0.0,0.0,89,0.00,,,0.00,dv,2013-01-03 06:45:00,
2013-01-03 01:50:00,38.9,36.8,30.05,WSW,237,1.6,1.6,89,0.00,,,0.00,dv,2013-01-03 06:50:00,
2013-01-03 01:55:00,39.0,36.9,30.05,SW,236,1.6,1.6,89,0.00,,,0.00,dv,2013-01-03 06:55:00,
2013-01-03 02:00:00,39.0,36.9,30.05,SW,236,0.0,0.0,89,0.00,,,0.00,dv,2013-01-03 07:00:00,
2013-01-03 02:05:00,39.0,36.9,30.06,WSW,237,0.0,0.0,89,0.00,,,0.00,dv,2013-01-03 07:05:00,
2013-01-03 02:10:00,39.0,36.9,30.06,SW,236,1.6,1.6,89,0.00,,,0.00,dv,2013-01-03 07:10:00,
2013-01-03 02:15:00,39.0,36.9,30.06,SW,236,0.0,0.0,89,0.00,,,0.00,dv,2013-01-03 07:15:00,
2013-01-03 02:20:00,39.0,36.9,30.05,WSW,237,0.0,0.0,89,0.00,,,0.00,dv,2013-01-03 07:20:00,
2013-01-03 02:25:00,39.1,37.0,30.05,WSW,237,1.6,1.6,89,0.00,,,0.00,dv,2013-01-03 07:25:00,
2013-01-03 02:30:00,39.1,37.0,30.05,SW,236,0.0,0.0,89,0.00,,,0.00,dv,2013-01-03 07:30:00,
2013-01-03 02:35:00,39.1,37.0,30.05,WSW,237,0.0,0.0,89,0.00,,,0.00,dv,2013-01-03 07:35:00,
2013-01-03 02:40:00,39.1,36.7,30.04,WSW,237,0.0,0.0,88,0.00,,,0.00,dv,2013-01-03 07:40:00,
2013-01-03 02:45:00,39.1,36.7,30.05,SW,236,0.0,0.0,88,0.00,,,0.00,dv,2013-01-03 07:45:00,
2013-01-03 02:50:00,39.1,36.7,30.05,SW,236,0.0,0.0,88,0.00,,,0.00,dv,2013-01-03 07:50:00,
2013-01-03 02:55:00,39.1,37.0,30.05,SW,236,1.6,1.6,89,0.00,,,0.00,dv,2013-01-03 07:55:00,
2013-01-03 03:00:00,39.1,36.7,30.05,SW,236,3.2,3.2,88,0.00,,,0.00,dv,2013-01-03 08:00:00,
2013-01-03 03:05:00,39.0,36.6,30.04,SW,236,1.6,1.6,88,0.00,,,0.00,dv,2013-01-03 08:05:00,
2013-01-03 03:10:00,38.9,36.6,30.04,WSW,237,0.0,0.0,88,0.00,,,0.00,dv,2013-01-03 08:10:00,
2013-01-03 03:15:00,38.9,36.6,30.04,SW,236,1.6,1.6,88,0.00,,,0.00,dv,2013-01-03 08:15:00,
2013-01-03 03:20:00,38.9,36.3,30.03,SW,236,1.6,1.6,87,0.00,,,0.00,dv,2013-01-03 08:20:00,
2013-01-03 03:25:00,38.9,36.3,30.04,SW,233,1.6,1.6,87,0.00,,,0.00,dv,2013-01-03 08:25:00,
2013-01-03 03:30:00,38.8,36.5,30.05,WSW,247,8.1,8.1,88,0.00,,,0.00,dv,2013-01-03 08:30:00,
2013-01-03 03:35:00,38.8,36.5,30.05,West,261,4.8,4.8,88,0.00,,,0.00,dv,2013-01-03 08:35:00,
2013-01-03 03:45:00,38.8,36.5,30.05,WSW,256,6.4,6.4,88,0.00,,,0.00,dv,2013-01-03 08:45:00,
2013-01-03 03:50:00,38.8,36.5,30.06,West,263,8.1,8.1,88,0.00,,,0.00,dv,2013-01-03 08:50:00,
2013-01-03 03:55:00,38.8,36.5,30.04,SW,233,8.1,8.1,88,0.00,,,0.00,dv,2013-01-03 08:55:00,
2013-01-03 04:00:00,38.8,36.5,30.04,SW,230,9.7,9.7,88,0.00,,,0.00,dv,2013-01-03 09:00:00,
2013-01-03 04:05:00,38.7,36.4,30.05,SW,235,3.2,3.2,88,0.00,,,0.00,dv,2013-01-03 09:05:00,
2013-01-03 04:10:00,38.7,36.4,30.06,WSW,256,3.2,3.2,88,0.00,,,0.00,dv,2013-01-03 09:10:00,
2013-01-03 04:20:00,38.6,36.3,30.06,West,262,9.7,9.7,88,0.00,,,0.00,dv,2013-01-03 09:20:00,
2013-01-03 04:25:00,38.6,36.3,30.06,WNW,292,9.7,9.7,88,0.00,,,0.00,dv,2013-01-03 09:25:00,
2013-01-03 04:30:00,38.6,36.3,30.07,WSW,252,4.8,4.8,88,0.00,,,0.00,dv,2013-01-03 09:30:00,
2013-01-03 04:35:00,38.5,36.2,30.06,SSW,211,3.2,3.2,88,0.00,,,0.00,dv,2013-01-03 09:35:00,
2013-01-03 04:40:00,38.5,36.2,30.06,West,269,6.4,6.4,88,0.00,,,0.00,dv,2013-01-03 09:40:00,
2013-01-03 04:45:00,38.5,36.2,30.05,West,270,0.0,0.0,88,0.00,,,0.00,dv,2013-01-03 09:45:00,
2013-01-03 04:50:00,38.5,36.2,30.04,WNW,291,1.6,1.6,88,0.00,,,0.00,dv,2013-01-03 09:50:00,
2013-01-03 04:55:00,38.4,36.1,30.05,WNW,286,0.0,0.0,88,0.00,,,0.00,dv,2013-01-03 09:55:00,
2013-01-03 05:00:00,38.4,36.1,30.06,WNW,282,1.6,1.6,88,0.00,,,0.00,dv,2013-01-03 10:00:00,
2013-01-03 05:05:00,38.5,36.2,30.06,WNW,282,0.0,0.0,88,0.00,,,0.00,dv,2013-01-03 10:05:00,
2013-01-03 05:10:00,38.5,36.2,30.06,West,279,3.2,3.2,88,0.00,,,0.00,dv,2013-01-03 10:10:00,
2013-01-03 05:15:00,38.4,36.1,30.06,West,276,3.2,3.2,88,0.00,,,0.00,dv,2013-01-03 10:15:00,
2013-01-03 05:25:00,38.3,36.0,30.07,WNW,287,4.8,4.8,88,0.00,,,0.00,dv,2013-01-03 10:25:00,
2013-01-03 05:30:00,38.3,36.0,30.06,West,265,6.4,6.4,88,0.00,,,0.00,dv,2013-01-03 10:30:00,
2013-01-03 05:35:00,38.2,35.9,30.06,West,269,6.4,6.4,88,0.00,,,0.00,dv,2013-01-03 10:35:00,
2013-01-03 05:40:00,38.2,35.9,30.07,West,271,4.8,4.8,88,0.00,,,0.00,dv,2013-01-03 10:40:00,
2013-01-03 05:45:00,38.2,35.9,30.06,West,275,4.8,4.8,88,0.00,,,0.00,dv,2013-01-03 10:45:00,
2013-01-03 05:55:00,38.0,35.7,30.06,SSW,209,4.8,4.8,88,0.00,,,0.00,dv,2013-01-03 10:55:00,
2013-01-03 06:00:00,38.0,35.7,30.07,SE,145,1.6,1.6,88,0.00,,,0.00,dv,2013-01-03 11:00:00,
2013-01-03 06:05:00,38.0,35.7,30.07,SW,221,1.6,1.6,88,0.00,,,0.00,dv,2013-01-03 11:05:00,
2013-01-03 06:10:00,37.9,35.6,30.07,South,187,3.2,3.2,88,0.00,,,0.00,dv,2013-01-03 11:10:00,
2013-01-03 06:15:00,37.9,35.6,30.07,WSW,250,3.2,3.2,88,0.00,,,0.00,dv,2013-01-03 11:15:00,
2013-01-03 06:20:00,37.8,35.5,30.07,WSW,254,1.6,1.6,88,0.00,,,0.00,dv,2013-01-03 11:20:00,
2013-01-03 06:25:00,37.8,35.5,30.07,WSW,254,0.0,0.0,88,0.00,,,0.00,dv,2013-01-03 11:25:00,
2013-01-03 06:30:00,37.8,35.5,30.07,WSW,243,4.8,4.8,88,0.00,,,0.00,dv,2013-01-03 11:30:00,
2013-01-03 06:40:00,37.7,35.4,30.07,WSW,243,0.0,0.0,88,0.00,,,0.00,dv,2013-01-03 11:40:00,
2013-01-03 06:45:00,37.6,35.3,30.07,SSW,204,3.2,3.2,88,0.00,,,0.00,dv,2013-01-03 11:45:00,
2013-01-03 06:55:00,37.5,35.4,30.07,WSW,247,1.6,1.6,89,0.00,,,0.00,dv,2013-01-03 11:55:00,
2013-01-03 07:05:00,37.4,35.1,30.07,SW,227,3.2,3.2,88,0.00,,,0.00,dv,2013-01-03 12:05:00,
2013-01-03 07:10:00,37.3,35.0,30.07,WNW,284,3.2,3.2,88,0.00,,,0.00,dv,2013-01-03 12:10:00,
2013-01-03 07:15:00,37.3,35.0,30.07,West,274,1.6,1.6,88,0.00,,,0.00,dv,2013-01-03 12:15:00,
2013-01-03 07:20:00,37.3,35.0,30.07,WSW,255,3.2,3.2,88,0.00,,,0.00,dv,2013-01-03 12:20:00,
2013-01-03 07:25:00,37.3,35.0,30.08,West,274,3.2,3.2,88,0.00,,,0.00,dv,2013-01-03 12:25:00,
2013-01-03 07:30:00,37.3,35.0,30.08,SW,230,3.2,3.2,88,0.00,,,0.00,dv,2013-01-03 12:30:00,
2013-01-03 07:40:00,37.3,35.0,30.08,NW,316,1.6,1.6,88,0.00,,,0.00,dv,2013-01-03 12:40:00,
2013-01-03 07:45:00,37.2,34.9,30.08,West,266,4.8,4.8,88,0.00,,,0.00,dv,2013-01-03 12:45:00,
2013-01-03 07:50:00,37.2,34.9,30.08,NW,311,3.2,3.2,88,0.00,,,0.00,dv,2013-01-03 12:50:00,
2013-01-03 07:55:00,37.2,34.9,30.07,NW,311,3.2,3.2,88,0.00,,,0.00,dv,2013-01-03 12:55:00,
2013-01-03 08:00:00,37.2,34.9,30.08,WNW,284,4.8,4.8,88,0.00,,,0.00,dv,2013-01-03 13:00:00,
2013-01-03 08:05:00,37.1,35.0,30.08,WNW,284,4.8,4.8,89,0.00,,,0.00,dv,2013-01-03 13:05:00,
2013-01-03 08:10:00,37.1,34.8,30.08,South,169,3.2,3.2,88,0.00,,,0.00,dv,2013-01-03 13:10:00,
2013-01-03 08:15:00,37.1,34.8,30.08,South,188,1.6,1.6,88,0.00,,,0.00,dv,2013-01-03 13:15:00,
2013-01-03 08:20:00,37.1,34.8,30.08,NW,316,3.2,3.2,88,0.00,,,0.00,dv,2013-01-03 13:20:00,
2013-01-03 08:25:00,37.1,34.8,30.08,WNW,293,3.2,3.2,88,0.00,,,0.00,dv,2013-01-03 13:25:00,
2013-01-03 08:30:00,37.1,35.0,30.09,SSW,193,3.2,3.2,89,0.00,,,0.00,dv,2013-01-03 13:30:00,
2013-01-03 08:35:00,37.1,35.0,30.09,South,191,6.4,6.4,89,0.00,,,0.00,dv,2013-01-03 13:35:00,
2013-01-03 08:40:00,37.2,35.1,30.09,West,268,3.2,3.2,89,0.00,,,0.00,dv,2013-01-03 13:40:00,
2013-01-03 08:45:00,37.3,35.2,30.08,SW,227,4.8,4.8,89,0.00,,,0.00,dv,2013-01-03 13:45:00,
2013-01-03 08:50:00,37.4,35.1,30.09,West,274,6.4,6.4,88,0.00,,,0.00,dv,2013-01-03 13:50:00,
2013-01-03 08:55:00,37.4,35.3,30.09,SSW,209,6.4,6.4,89,0.00,,,0.00,dv,2013-01-03 13:55:00,
2013-01-03 09:00:00,37.5,35.2,30.10,SSW,210,3.2,3.2,88,0.00,,,0.00,dv,2013-01-03 14:00:00,
2013-01-03 09:05:00,37.6,35.5,30.11,West,277,8.1,8.1,89,0.00,,,0.00,dv,2013-01-03 14:05:00,
2013-01-03 09:10:00,37.7,35.6,30.10,SW,234,6.4,6.4,89,0.00,,,0.00,dv,2013-01-03 14:10:00,
2013-01-03 09:20:00,37.8,35.5,30.09,SW,215,6.4,6.4,88,0.00,,,0.00,dv,2013-01-03 14:20:00,
2013-01-03 09:25:00,37.8,35.5,30.10,West,274,4.8,4.8,88,0.00,,,0.00,dv,2013-01-03 14:25:00,
2013-01-03 09:30:00,37.9,35.6,30.10,West,266,3.2,3.2,88,0.00,,,0.00,dv,2013-01-03 14:30:00,
2013-01-03 09:40:00,38.2,35.9,30.11,West,268,0.0,0.0,88,0.00,,,0.00,dv,2013-01-03 14:40:00,
2013-01-03 09:50:00,38.4,35.9,30.11,WNW,283,6.4,6.4,87,0.00,,,0.00,dv,2013-01-03 14:50:00,
2013-01-03 09:55:00,38.5,35.9,30.11,WNW,294,4.8,4.8,87,0.00,,,0.00,dv,2013-01-03 14:55:00,
2013-01-03 10:00:00,38.6,36.0,30.11,West,270,4.8,4.8,87,0.00,,,0.00,dv,2013-01-03 15:00:00,
2013-01-03 10:05:00,38.7,35.9,30.12,West,270,1.6,1.6,86,0.00,,,0.00,dv,2013-01-03 15:05:00,
2013-01-03 10:10:00,38.7,35.9,30.11,WSW,248,1.6,1.6,86,0.00,,,0.00,dv,2013-01-03 15:10:00,
2013-01-03 10:15:00,38.9,36.1,30.12,WSW,242,4.8,4.8,86,0.00,,,0.00,dv,2013-01-03 15:15:00,
2013-01-03 10:25:00,39.3,36.7,30.13,West,271,6.4,6.4,87,0.00,,,0.00,dv,2013-01-03 15:25:00,
2013-01-03 10:30:00,39.4,36.6,30.12,West,271,0.0,0.0,86,0.00,,,0.00,dv,2013-01-03 15:30:00,
2013-01-03 10:40:00,39.7,36.7,30.13,SW,223,6.4,6.4,85,0.00,,,0.00,dv,2013-01-03 15:40:00,
2013-01-03 10:45:00,39.8,36.8,30.13,SW,217,8.1,8.1,85,0.00,,,0.00,dv,2013-01-03 15:45:00,
2013-01-03 10:50:00,39.9,36.9,30.13,SW,217,1.6,1.6,85,0.00,,,0.00,dv,2013-01-03 15:50:00,
2013-01-03 11:00:00,40.5,37.5,30.13,West,274,6.4,6.4,85,0.00,,,0.00,dv,2013-01-03 16:00:00,
2013-01-03 11:05:00,40.8,37.3,30.13,West,276,3.2,3.2,83,0.00,,,0.00,dv,2013-01-03 16:05:00,
2013-01-03 11:10:00,41.1,37.6,30.13,WNW,288,4.8,4.8,83,0.00,,,0.00,dv,2013-01-03 16:10:00,
2013-01-03 11:15:00,41.3,37.8,30.13,SW,228,6.4,6.4,83,0.00,,,0.00,dv,2013-01-03 16:15:00,
2013-01-03 11:20:00,41.4,37.5,30.13,WSW,250,1.6,1.6,81,0.00,,,0.00,dv,2013-01-03 16:20:00,
2013-01-03 11:30:00,41.8,37.9,30.13,SW,223,6.4,6.4,81,0.00,,,0.00,dv,2013-01-03 16:30:00,
2013-01-03 11:35:00,42.0,38.3,30.13,SW,230,8.1,8.1,82,0.00,,,0.00,dv,2013-01-03 16:35:00,
2013-01-03 11:40:00,42.1,38.2,30.13,SSW,201,4.8,4.8,81,0.00,,,0.00,dv,2013-01-03 16:40:00,
2013-01-03 11:45:00,42.2,38.0,30.13,WNW,303,4.8,4.8,80,0.00,,,0.00,dv,2013-01-03 16:45:00,
2013-01-03 11:50:00,42.4,37.8,30.12,WNW,303,1.6,1.6,78,0.00,,,0.00,dv,2013-01-03 16:50:00,
2013-01-03 12:00:00,42.9,38.2,30.12,West,267,3.2,3.2,78,0.00,,,0.00,dv,2013-01-03 17:00:00,
2013-01-03 12:05:00,43.1,38.2,30.12,WSW,237,4.8,4.8,77,0.00,,,0.00,dv,2013-01-03 17:05:00,
2013-01-03 12:10:00,43.4,38.7,30.12,WSW,254,4.8,4.8,78,0.00,,,0.00,dv,2013-01-03 17:10:00,
2013-01-03 12:15:00,43.7,39.0,30.12,WSW,252,6.4,6.4,78,0.00,,,0.00,dv,2013-01-03 17:15:00,
2013-01-03 12:20:00,43.9,38.5,30.12,North,0,3.2,3.2,75,0.00,,,0.00,dv,2013-01-03 17:20:00,
2013-01-03 12:25:00,44.0,38.8,30.12,WSW,247,4.8,4.8,76,0.00,,,0.00,dv,2013-01-03 17:25:00,
2013-01-03 12:30:00,44.3,38.6,30.11,NNW,339,4.8,4.8,74,0.00,,,0.00,dv,2013-01-03 17:30:00,
2013-01-03 12:35:00,44.4,38.5,30.12,NNW,339,1.6,1.6,73,0.00,,,0.00,dv,2013-01-03 17:35:00,
2013-01-03 12:40:00,44.5,38.6,30.11,West,266,4.8,4.8,73,0.00,,,0.00,dv,2013-01-03 17:40:00,
2013-01-03 12:45:00,44.7,39.7,30.11,WSW,258,4.8,4.8,77,0.00,,,0.00,dv,2013-01-03 17:45:00,
2013-01-03 12:50:00,44.7,38.2,30.10,West,276,4.8,4.8,71,0.00,,,0.00,dv,2013-01-03 17:50:00,
2013-01-03 12:55:00,44.9,38.9,30.10,West,277,4.8,4.8,73,0.00,,,0.00,dv,2013-01-03 17:55:00,
2013-01-03 13:00:00,45.2,38.7,30.09,West,263,3.2,3.2,71,0.00,,,0.00,dv,2013-01-03 18:00:00,
2013-01-03 13:05:00,45.6,40.1,30.10,WSW,240,8.1,8.1,75,0.00,,,0.00,dv,2013-01-03 18:05:00,
2013-01-03 13:10:00,45.7,39.2,30.09,WSW,244,4.8,4.8,71,0.00,,,0.00,dv,2013-01-03 18:10:00,
2013-01-03 13:15:00,45.8,39.0,30.09,SSW,195,3.2,3.2,70,0.00,,,0.00,dv,2013-01-03 18:15:00,
2013-01-03 13:20:00,46.1,39.8,30.09,WNW,300,8.1,8.1,72,0.00,,,0.00,dv,2013-01-03 18:20:00,
2013-01-03 13:25:00,46.2,39.1,30.10,WNW,298,3.2,3.2,69,0.00,,,0.00,dv,2013-01-03 18:25:00,
2013-01-03 13:30:00,46.3,39.8,30.09,West,261,6.4,6.4,71,0.00,,,0.00,dv,2013-01-03 18:30:00,
2013-01-03 13:40:00,46.5,39.9,30.09,SE,124,6.4,6.4,71,0.00,,,0.00,dv,2013-01-03 18:40:00,
2013-01-03 13:45:00,46.5,38.9,30.09,SW,227,8.1,8.1,67,0.00,,,0.00,dv,2013-01-03 18:45:00,
2013-01-03 13:50:00,46.5,39.1,30.09,NNE,13,6.4,6.4,68,0.00,,,0.00,dv,2013-01-03 18:50:00,
2013-01-03 13:55:00,46.7,39.6,30.08,SW,236,6.4,6.4,69,0.00,,,0.00,dv,2013-01-03 18:55:00,
2013-01-03 14:00:00,46.8,40.0,30.08,SW,235,4.8,4.8,70,0.00,,,0.00,dv,2013-01-03 19:00:00,
2013-01-03 14:05:00,46.9,39.2,30.08,WNW,301,6.4,6.4,67,0.00,,,0.00,dv,2013-01-03 19:05:00,
2013-01-03 14:10:00,47.1,39.2,30.08,SE,125,6.4,6.4,66,0.00,,,0.00,dv,2013-01-03 19:10:00,
2013-01-03 14:15:00,47.3,40.2,30.08,WSW,255,8.1,8.1,69,0.00,,,0.00,dv,2013-01-03 19:15:00,
2013-01-03 14:51:00,47.6,38.5,30.08,SW,220,8.1,8.1,62,0.00,,,0.00,dv,2013-01-03 19:51:00,
2013-01-03 15:00:00,47.6,38.8,30.09,SW,216,12.9,12.9,63,0.00,,,0.00,dv,2013-01-03 20:00:00,
2013-01-03 15:05:00,47.4,37.1,30.09,SW,222,6.4,6.4,58,0.00,,,0.00,dv,2013-01-03 20:05:00,
2013-01-03 15:10:00,47.4,38.0,30.10,WNW,282,3.2,3.2,61,0.00,,,0.00,dv,2013-01-03 20:10:00,
2013-01-03 15:15:00,47.6,37.2,30.10,NW,318,4.8,4.8,58,0.00,,,0.00,dv,2013-01-03 20:15:00,
2013-01-03 15:20:00,47.7,36.0,30.10,South,173,4.8,4.8,54,0.00,,,0.00,dv,2013-01-03 20:20:00,
2013-01-03 15:25:00,48.1,36.7,30.10,West,269,4.8,4.8,55,0.00,,,0.00,dv,2013-01-03 20:25:00,
2013-01-03 15:30:00,48.2,35.1,30.11,South,176,4.8,4.8,50,0.00,,,0.00,dv,2013-01-03 20:30:00,
2013-01-03 15:35:00,48.3,35.9,30.11,SW,224,4.8,4.8,52,0.00,,,0.00,dv,2013-01-03 20:35:00,
2013-01-03 15:40:00,48.2,35.8,30.11,West,269,9.7,9.7,52,0.00,,,0.00,dv,2013-01-03 20:40:00,
2013-01-03 15:45:00,47.9,35.5,30.11,ENE,68,11.3,11.3,52,0.00,,,0.00,dv,2013-01-03 20:45:00,
2013-01-03 15:50:00,47.5,34.4,30.11,WSW,249,8.1,8.1,50,0.00,,,0.00,dv,2013-01-03 20:50:00,
2013-01-03 15:55:00,47.2,34.2,30.11,ENE,72,8.1,8.1,50,0.00,,,0.00,dv,2013-01-03 20:55:00,
2013-01-03 16:00:00,47.0,34.3,30.11,ENE,73,6.4,6.4,51,0.00,,,0.00,dv,2013-01-03 21:00:00,
2013-01-03 16:05:00,46.8,35.5,30.12,West,275,6.4,6.4,55,0.00,,,0.00,dv,2013-01-03 21:05:00,
2013-01-03 16:10:00,46.6,35.0,30.12,SW,236,4.8,4.8,54,0.00,,,0.00,dv,2013-01-03 21:10:00,
2013-01-03 16:15:00,46.4,35.2,30.12,NE,43,6.4,6.4,55,0.00,,,0.00,dv,2013-01-03 21:15:00,
2013-01-03 16:20:00,46.2,35.0,30.13,SSW,211,4.8,4.8,55,0.00,,,0.00,dv,2013-01-03 21:20:00,
2013-01-03 16:30:00,45.8,34.9,30.13,NNW,330,8.1,8.1,56,0.00,,,0.00,dv,2013-01-03 21:30:00,
2013-01-03 16:35:00,45.6,34.4,30.14,WSW,241,9.7,9.7,55,0.00,,,0.00,dv,2013-01-03 21:35:00,
2013-01-03 16:40:00,45.3,34.1,30.13,ENE,60,8.1,8.1,55,0.00,,,0.00,dv,2013-01-03 21:40:00,
2013-01-03 16:45:00,45.1,34.9,30.14,SSW,211,11.3,11.3,58,0.00,,,0.00,dv,2013-01-03 21:45:00,
2013-01-03 16:50:00,44.8,34.9,30.14,SSW,203,11.3,11.3,59,0.00,,,0.00,dv,2013-01-03 21:50:00,
2013-01-03 16:55:00,44.5,34.0,30.14,NE,36,9.7,9.7,57,0.00,,,0.00,dv,2013-01-03 21:55:00,
2013-01-03 17:00:00,44.3,33.5,30.15,South,184,8.1,8.1,56,0.00,,,0.00,dv,2013-01-03 22:00:00,
2013-01-03 17:05:00,44.1,33.7,30.15,SW,223,4.8,4.8,57,0.00,,,0.00,dv,2013-01-03 22:05:00,
2013-01-03 17:10:00,43.7,34.2,30.15,West,263,12.9,12.9,60,0.00,,,0.00,dv,2013-01-03 22:10:00,
2013-01-03 17:15:00,43.3,33.5,30.15,WSW,251,11.3,11.3,59,0.00,,,0.00,dv,2013-01-03 22:15:00,
2013-01-03 17:20:00,43.0,33.3,30.15,SSW,194,6.4,6.4,59,0.00,,,0.00,dv,2013-01-03 22:20:00,
2013-01-03 17:25:00,42.7,33.0,30.15,WSW,242,16.1,16.1,59,0.00,,,0.00,dv,2013-01-03 22:25:00,
2013-01-03 17:30:00,42.5,32.5,30.15,West,277,8.1,8.1,58,0.00,,,0.00,dv,2013-01-03 22:30:00,
2013-01-03 17:35:00,42.4,33.0,30.16,West,274,6.4,6.4,60,0.00,,,0.00,dv,2013-01-03 22:35:00,
2013-01-03 17:40:00,42.1,32.4,30.16,ESE,122,6.4,6.4,59,0.00,,,0.00,dv,2013-01-03 22:40:00,
2013-01-03 17:45:00,41.9,32.2,30.15,South,188,1.6,1.6,59,0.00,,,0.00,dv,2013-01-03 22:45:00,
2013-01-03 17:50:00,41.9,32.2,30.16,NNW,330,4.8,4.8,59,0.00,,,0.00,dv,2013-01-03 22:50:00,
2013-01-03 17:55:00,41.7,32.3,30.16,WNW,285,6.4,6.4,60,0.00,,,0.00,dv,2013-01-03 22:55:00,
2013-01-03 18:00:00,41.4,32.4,30.16,WNW,290,8.1,8.1,61,0.00,,,0.00,dv,2013-01-03 23:00:00,
2013-01-03 18:05:00,41.1,32.4,30.17,WSW,255,12.9,12.9,62,0.00,,,0.00,dv,2013-01-03 23:05:00,
2013-01-03 18:10:00,40.9,32.5,30.17,West,260,11.3,11.3,63,0.00,,,0.00,dv,2013-01-03 23:10:00,
2013-01-03 18:15:00,40.7,32.3,30.17,West,259,8.1,8.1,63,0.00,,,0.00,dv,2013-01-03 23:15:00,
2013-01-03 18:20:00,40.5,31.5,30.17,North,349,6.4,6.4,61,0.00,,,0.00,dv,2013-01-03 23:20:00,
2013-01-03 18:30:00,40.2,31.5,30.18,WSW,251,8.1,8.1,62,0.00,,,0.00,dv,2013-01-03 23:30:00,
2013-01-03 18:35:00,40.0,31.6,30.19,WSW,242,8.1,8.1,63,0.00,,,0.00,dv,2013-01-03 23:35:00,
2013-01-03 18:40:00,39.9,31.5,30.19,NNE,18,8.1,8.1,63,0.00,,,0.00,dv,2013-01-03 23:40:00,
2013-01-03 18:45:00,39.7,31.3,30.19,WSW,255,6.4,6.4,63,0.00,,,0.00,dv,2013-01-03 23:45:00,
2013-01-03 18:50:00,39.6,31.2,30.19,West,264,8.1,8.1,63,0.00,,,0.00,dv,2013-01-03 23:50:00,
2013-01-03 18:55:00,39.5,31.4,30.19,WSW,258,3.2,3.2,64,0.00,,,0.00,dv,2013-01-03 23:55:00,
2013-01-03 19:00:00,39.3,31.5,30.20,SW,224,4.8,4.8,65,0.00,,,0.00,dv,2013-01-04 00:00:00,
2013-01-03 19:05:00,39.1,30.8,30.20,SSW,206,4.8,4.8,63,0.00,,,0.00,dv,2013-01-04 00:05:00,
2013-01-03 19:10:00,38.9,30.9,30.20,WNW,284,6.4,6.4,64,0.00,,,0.00,dv,2013-01-04 00:10:00,
2013-01-03 19:15:00,38.9,30.9,30.20,NE,42,6.4,6.4,64,0.00,,,0.00,dv,2013-01-04 00:15:00,
2013-01-03 19:20:00,38.7,30.4,30.20,SW,230,4.8,4.8,63,0.00,,,0.00,dv,2013-01-04 00:20:00,
2013-01-03 19:25:00,38.6,31.1,30.20,West,259,8.1,8.1,66,0.00,,,0.00,dv,2013-01-04 00:25:00,
2013-01-03 19:30:00,38.4,31.2,30.20,West,273,6.4,6.4,67,0.00,,,0.00,dv,2013-01-04 00:30:00,
2013-01-03 19:35:00,38.1,30.9,30.20,NNW,341,9.7,9.7,67,0.00,,,0.00,dv,2013-01-04 00:35:00,
2013-01-03 19:40:00,37.9,30.7,30.20,NW,316,8.1,8.1,67,0.00,,,0.00,dv,2013-01-04 00:40:00,
2013-01-03 19:45:00,37.8,30.6,30.20,West,274,6.4,6.4,67,0.00,,,0.00,dv,2013-01-04 00:45:00,
2013-01-03 19:50:00,37.7,30.8,30.20,West,264,6.4,6.4,68,0.00,,,0.00,dv,2013-01-04 00:50:00,
2013-01-03 19:55:00,37.5,30.6,30.20,WSW,252,11.3,11.3,68,0.00,,,0.00,dv,2013-01-04 00:55:00,
2013-01-03 20:00:00,37.4,30.2,30.21,NW,308,12.9,12.9,67,0.00,,,0.00,dv,2013-01-04 01:00:00,
2013-01-03 20:05:00,37.3,30.1,30.20,East,92,4.8,4.8,67,0.00,,,0.00,dv,2013-01-04 01:05:00,
2013-01-03 20:10:00,37.2,29.8,30.21,WSW,256,4.8,4.8,66,0.00,,,0.00,dv,2013-01-04 01:10:00,
2013-01-03 20:15:00,37.2,29.8,30.21,South,169,12.9,12.9,66,0.00,,,0.00,dv,2013-01-04 01:15:00,
2013-01-03 20:20:00,37.2,29.8,30.21,NNW,330,8.1,8.1,66,0.00,,,0.00,dv,2013-01-04 01:20:00,
2013-01-03 20:25:00,37.1,29.4,30.21,SSE,157,6.4,6.4,65,0.00,,,0.00,dv,2013-01-04 01:25:00,
2013-01-03 20:35:00,37.1,29.4,30.21,West,268,8.1,8.1,65,0.00,,,0.00,dv,2013-01-04 01:35:00,
2013-01-03 20:40:00,37.1,29.7,30.21,WSW,254,4.8,4.8,66,0.00,,,0.00,dv,2013-01-04 01:40:00,
2013-01-03 20:45:00,37.0,29.6,30.21,SSW,209,4.8,4.8,66,0.00,,,0.00,dv,2013-01-04 01:45:00,
2013-01-03 20:50:00,36.9,29.0,30.21,NW,304,4.8,4.8,64,0.00,,,0.00,dv,2013-01-04 01:50:00,
2013-01-03 20:55:00,36.8,28.9,30.21,WSW,249,4.8,4.8,64,0.00,,,0.00,dv,2013-01-04 01:55:00,
2013-01-03 21:00:00,36.7,29.0,30.21,SW,222,0.0,0.0,65,0.00,,,0.00,dv,2013-01-04 02:00:00,
2013-01-03 21:05:00,36.7,29.3,30.21,SSW,192,3.2,3.2,66,0.00,,,0.00,dv,2013-01-04 02:05:00,
2013-01-03 21:10:00,36.5,28.9,30.21,WSW,245,1.6,1.6,65,0.00,,,0.00,dv,2013-01-04 02:10:00,
2013-01-03 21:15:00,36.4,29.0,30.21,WNW,301,3.2,3.2,66,0.00,,,0.00,dv,2013-01-04 02:15:00,
2013-01-03 21:20:00,36.4,28.8,30.20,WNW,288,3.2,3.2,65,0.00,,,0.00,dv,2013-01-04 02:20:00,
2013-01-03 21:25:00,36.3,28.7,30.21,NNE,32,1.6,1.6,65,0.00,,,0.00,dv,2013-01-04 02:25:00,
2013-01-03 21:30:00,36.2,28.3,30.21,NNE,32,1.6,1.6,64,0.00,,,0.00,dv,2013-01-04 02:30:00,
2013-01-03 21:35:00,36.2,28.6,30.22,NNE,32,1.6,1.6,65,0.00,,,0.00,dv,2013-01-04 02:35:00,
2013-01-03 21:40:00,36.1,28.5,30.21,NNE,32,0.0,0.0,65,0.00,,,0.00,dv,2013-01-04 02:40:00,
2013-01-03 21:45:00,36.0,28.6,30.22,NNE,32,0.0,0.0,66,0.00,,,0.00,dv,2013-01-04 02:45:00,
2013-01-03 21:50:00,35.9,28.8,30.21,NNE,32,0.0,0.0,67,0.00,,,0.00,dv,2013-01-04 02:50:00,
2013-01-03 21:55:00,35.8,28.7,30.22,NNE,32,0.0,0.0,67,0.00,,,0.00,dv,2013-01-04 02:55:00,
2013-01-03 22:00:00,35.6,28.5,30.22,NNE,32,0.0,0.0,67,0.00,,,0.00,dv,2013-01-04 03:00:00,
2013-01-03 22:05:00,35.4,28.6,30.22,NNE,32,0.0,0.0,68,0.00,,,0.00,dv,2013-01-04 03:05:00,
2013-01-03 22:10:00,35.2,28.4,30.22,NNE,32,0.0,0.0,68,0.00,,,0.00,dv,2013-01-04 03:10:00,
2013-01-03 22:15:00,35.1,28.3,30.22,NNE,32,0.0,0.0,68,0.00,,,0.00,dv,2013-01-04 03:15:00,
2013-01-03 22:20:00,34.9,27.9,30.22,NNE,32,0.0,0.0,67,0.00,,,0.00,dv,2013-01-04 03:20:00,
2013-01-03 22:25:00,34.8,28.3,30.23,NNE,32,3.2,3.2,69,0.00,,,0.00,dv,2013-01-04 03:25:00,
2013-01-03 22:30:00,34.5,28.2,30.23,NNE,32,1.6,1.6,70,0.00,,,0.00,dv,2013-01-04 03:30:00,
2013-01-03 22:35:00,34.3,28.0,30.24,NNE,32,1.6,1.6,70,0.00,,,0.00,dv,2013-01-04 03:35:00,
2013-01-03 22:40:00,34.1,27.9,30.24,NNE,32,0.0,0.0,70,0.00,,,0.00,dv,2013-01-04 03:40:00,
2013-01-03 22:45:00,33.9,27.9,30.24,NNE,32,0.0,0.0,71,0.00,,,0.00,dv,2013-01-04 03:45:00,
2013-01-03 22:50:00,33.8,27.8,30.24,NNE,32,0.0,0.0,71,0.00,,,0.00,dv,2013-01-04 03:50:00,
2013-01-03 22:55:00,33.8,28.0,30.25,NNE,32,0.0,0.0,72,0.00,,,0.00,dv,2013-01-04 03:55:00,
2013-01-03 23:00:00,33.6,27.6,30.25,NNE,32,0.0,0.0,71,0.00,,,0.00,dv,2013-01-04 04:00:00,
2013-01-03 23:05:00,33.6,27.9,30.25,NNE,32,1.6,1.6,72,0.00,,,0.00,dv,2013-01-04 04:05:00,
2013-01-03 23:10:00,33.5,27.8,30.25,NNE,32,0.0,0.0,72,0.00,,,0.00,dv,2013-01-04 04:10:00,
2013-01-03 23:15:00,33.5,28.0,30.26,NNE,32,0.0,0.0,73,0.00,,,0.00,dv,2013-01-04 04:15:00,
2013-01-03 23:20:00,33.4,27.7,30.26,NNE,32,0.0,0.0,72,0.00,,,0.00,dv,2013-01-04 04:20:00,
2013-01-03 23:25:00,33.4,27.9,30.26,NNE,32,0.0,0.0,73,0.00,,,0.00,dv,2013-01-04 04:25:00,
2013-01-03 23:30:00,33.3,27.8,30.26,NNE,32,0.0,0.0,73,0.00,,,0.00,dv,2013-01-04 04:30:00,
2013-01-03 23:35:00,33.3,27.8,30.26,NNE,32,0.0,0.0,73,0.00,,,0.00,dv,2013-01-04 04:35:00,
2013-01-03 23:40:00,33.2,27.7,30.27,NNE,32,1.6,1.6,73,0.00,,,0.00,dv,2013-01-04 04:40:00,
2013-01-03 23:45:00,33.1,27.8,30.26,NNE,32,0.0,0.0,74,0.00,,,0.00,dv,2013-01-04 04:45:00,
2013-01-03 23:55:00,33.0,27.7,30.26,NNE,32,1.6,1.6,74,0.00,,,0.00,dv,2013-01-04 04:55:00,